| time (UTC) | temp C | wind direction | speed KPH | gust KPH | rain 1hr cm | rain 24hr cm | rain mn cm | humidity % | barometer mb |
| 20260504050018 | 2 | 171 | 0.0 | 0.0 | 0.00 | 0.00 | 0.00 | 84 | 1013.4 |
| 20260504044515 | 2 | 171 | 0.0 | 3.2 | 0.00 | 0.00 | 0.00 | 83 | 1013.5 |
| 20260504043013 | 3 | 171 | 0.0 | 1.6 | 0.00 | 0.00 | 0.00 | 83 | 1013.4 |
| 20260504041511 | 3 | 171 | 0.0 | 4.8 | 0.00 | 0.00 | 0.00 | 83 | 1013.5 |
| 20260504040010 | 3 | 277 | 0.0 | 0.0 | 0.00 | 0.00 | 0.00 | 82 | 1013.3 |
| 20260504034515 | 3 | 277 | 0.0 | 4.8 | 0.00 | 0.00 | 0.00 | 81 | 1013.2 |
| 20260504033018 | 4 | 277 | 0.0 | 3.2 | 0.00 | 0.00 | 0.00 | 81 | 1013.4 |
| 20260504031508 | 4 | 277 | 0.0 | 1.6 | 0.00 | 0.00 | 0.00 | 80 | 1013.4 |
| 20260504030005 | 5 | 277 | 0.0 | 0.0 | 0.00 | 0.00 | 0.00 | 80 | 1013.3 |
| 20260504024518 | 5 | 277 | 0.0 | 0.0 | 0.00 | 0.00 | 0.00 | 79 | 1013.1 |
| 20260504023004 | 5 | 277 | 0.0 | 0.0 | 0.00 | 0.00 | 0.00 | 77 | 1013.0 |
| 20260504021505 | 6 | 277 | 0.0 | 1.6 | 0.00 | 0.00 | 0.00 | 76 | 1012.9 |
| 20260504020004 | 6 | 277 | 0.0 | 0.0 | 0.00 | 0.00 | 0.00 | 75 | 1012.9 |
| 20260504014503 | 7 | 277 | 0.0 | 0.0 | 0.00 | 0.00 | 0.00 | 72 | 1012.7 |
| 20260504013002 | 7 | 277 | 0.0 | 0.0 | 0.00 | 0.00 | 0.00 | 70 | 1012.6 |
| 20260504011502 | 7 | 277 | 0.0 | 1.6 | 0.00 | 0.00 | 0.00 | 67 | 1012.4 |
| 20260504010001 | 8 | 277 | 0.0 | 1.6 | 0.00 | 0.00 | 0.00 | 67 | 1012.5 |
| 20260504004503 | 9 | 277 | 0.0 | 0.0 | 0.00 | 0.00 | 0.00 | 62 | 1012.4 |
| 20260504003102 | 10 | 277 | 0.0 | 3.2 | 0.00 | 0.00 | 0.00 | 59 | 1012.3 |
| 20260504001607 | 11 | 277 | 1.6 | 4.8 | 0.00 | 0.00 | 0.00 | 56 | 1012.2 |
| 20260503234559 | 13 | 233 | 1.6 | 11.3 | 0.00 | 0.00 | 0.00 | 47 | 1012.1 |
| 20260503233058 | 14 | 272 | 6.4 | 17.7 | 0.00 | 0.00 | 0.00 | 40 | 1011.9 |
| 20260503231559 | 15 | 316 | 6.4 | 16.1 | 0.00 | 0.00 | 0.00 | 42 | 1011.8 |
| 20260503230059 | 15 | 279 | 3.2 | 12.9 | 0.00 | 0.00 | 0.00 | 38 | 1011.7 |
| 20260503224556 | 16 | 295 | 4.8 | 20.9 | 0.00 | 0.00 | 0.00 | 37 | 1011.5 |
| 20260503223059 | 16 | 285 | 4.8 | 16.1 | 0.00 | 0.00 | 0.00 | 36 | 1011.8 |
| 20260503221556 | 17 | 269 | 6.4 | 19.3 | 0.00 | 0.00 | 0.00 | 35 | 1011.8 |
| 20260503220059 | 17 | 248 | 6.4 | 16.1 | 0.00 | 0.00 | 0.00 | 36 | 1011.9 |
| 20260503214552 | 17 | 258 | 8.0 | 16.1 | 0.00 | 0.00 | 0.00 | 35 | 1012.0 |
| 20260503213053 | 17 | 279 | 8.0 | 27.4 | 0.00 | 0.00 | 0.00 | 35 | 1012.0 |
| 20260503211555 | 16 | 227 | 11.3 | 22.5 | 0.00 | 0.00 | 0.00 | 36 | 1011.9 |
| 20260503210048 | 17 | 279 | 9.7 | 22.5 | 0.00 | 0.00 | 0.00 | 38 | 1011.9 |
| 20260503204548 | 16 | 309 | 8.0 | 20.9 | 0.00 | 0.00 | 0.00 | 40 | 1011.9 |
| 20260503203044 | 15 | 288 | 6.4 | 16.1 | 0.00 | 0.00 | 0.00 | 38 | 1012.0 |
| 20260503201543 | 16 | 288 | 9.7 | 29.0 | 0.00 | 0.00 | 0.00 | 36 | 1012.2 |
| 20260503200042 | 16 | 290 | 14.5 | 30.6 | 0.00 | 0.00 | 0.00 | 38 | 1012.3 |
| 20260503194545 | 16 | 299 | 11.3 | 20.9 | 0.00 | 0.00 | 0.00 | 39 | 1012.5 |
| 20260503193043 | 16 | 289 | 12.9 | 20.9 | 0.00 | 0.00 | 0.00 | 37 | 1012.5 |
| 20260503191540 | 16 | 248 | 11.3 | 29.0 | 0.00 | 0.00 | 0.00 | 38 | 1012.9 |
| 20260503190043 | 15 | 311 | 8.0 | 27.4 | 0.00 | 0.00 | 0.00 | 40 | 1012.9 |
| 20260503184547 | 15 | 241 | 9.7 | 24.1 | 0.00 | 0.00 | 0.00 | 37 | 1013.1 |
| 20260503183036 | 16 | 351 | 9.7 | 24.1 | 0.00 | 0.00 | 0.00 | 38 | 1013.3 |
| 20260503181536 | 15 | 263 | 14.5 | 22.5 | 0.00 | 0.00 | 0.00 | 39 | 1013.2 |
| 20260503180030 | 15 | 284 | 6.4 | 30.6 | 0.00 | 0.00 | 0.00 | 39 | 1013.5 |
| 20260503174535 | 14 | 228 | 11.3 | 22.5 | 0.00 | 0.00 | 0.00 | 39 | 1013.7 |
| 20260503173026 | 14 | 300 | 12.9 | 25.7 | 0.00 | 0.00 | 0.00 | 46 | 1013.7 |
| 20260503171523 | 13 | 281 | 17.7 | 29.0 | 0.00 | 0.00 | 0.00 | 44 | 1014.0 |
| 20260503081501 | 1 | 261 | 1.6 | 6.4 | 0.00 | 0.00 | 0.00 | 83 | 1013.2 |